Vertical_Velocity
-5 6 -12 -7 -15 -8 4 15 -5 28 -11 -2 27 -2 -44 -4 14 -3 2 1 -3 -3 -0 1 1 -1 -2 -5 -3 -1 -1 2 -3 -2 1 -1 -3 -0 -0 -1 -3 -2 -3 -3
23 -12 -6 -2 1 -7 -2 3 0 45 16 -7 22 -2 -10 -25 21 -2 -2 -7 2 -3 -0 -4 -5 0 -5 -1 -1 -2 1 0 1 -2 1 1 2 -1 -3 -6 -5 2 -2 -4
-7 -10 -4 13 2 6 -9 -1 -4 12 22 3 21 15 62 66 -1 0 -6 2 -11 -0 -6 -2 -5 -5 -1 -6 -4 -2 -0 -0 2 -0 2 -1 -0 1 -2 -3 -5 -2 -3 -1
-0 -21 15 -5 1 6 5 -12 -4 1 30 -11 -1 -16 14 -84 14 -5 6 -8 2 -9 1 1 -4 -7 -3 -5 -0 -1 -1 -2 -0 -1 -1 -2 0 2 -2 -3 -1 1 -3 -3
-40 5 -2 5 -24 9 -34 7 1 -2 26 -3 6 26 5 3 28 5 -16 -3 -9 3 -8 -6 -6 -4 -2 -3 -4 -0 -0 1 -1 0 -1 -0 -0 -1 0 -2 -4 -8 -3 -2
-12 5 5 -6 -5 -3 -4 12 8 7 6 20 5 1 -52 29 -21 -52 38 -16 4 -13 -9 -6 -6 -7 -3 -2 -6 -0 -3 1 -2 -0 3 -2 2 0 -3 -6 -7 -7 -4 -4
7 -15 8 2 22 3 12 22 2 14 19 -13 6 25 -43 -12 -22 2 -55 -11 -0 5 -8 -5 -10 -10 -3 -2 -4 -2 0 -1 1 -3 1 -2 -2 -0 -2 -5 -7 -6 -6 -2
-4 20 -9 6 -16 -8 -22 6 -6 -6 -2 -17 -4 -7 -26 20 -5 -18 1 -25 35 -1 1 -9 -6 -7 -3 1 0 -3 -2 3 -1 -2 2 -3 -1 -2 -5 -9 -2 -4 -2 -5
19 -12 21 -15 18 -1 -12 9 -32 15 -1 26 -10 3 -4 26 34 -5 -101 17 26 47 -5 -8 -10 -2 -2 -3 1 -2 -5 2 0 2 -3 -2 -4 -4 -7 -6 -2 -2 -3 -7
-23 13 15 0 -3 2 -2 -1 29 5 10 1 -9 -10 -7 -3 34 -14 -12 -21 15 21 15 -6 -6 -8 0 1 3 -1 -3 -1 4 -0 -3 -1 -3 -6 -5 -3 -1 -5 -2 -6
-4 20 -29 41 1 -12 3 2 15 15 7 0 -2 -30 -9 9 -29 10 9 -3 -10 15 4 -1 -6 -9 2 0 -1 5 -2 -4 -3 -2 -2 -3 -8 -6 -3 -3 -3 -0 -3 2
-19 -7 -7 -17 -7 -9 -1 -16 -10 23 -17 -10 1 -41 1 26 57 15 -7 -3 -3 -31 17 -1 -10 -0 -8 -4 -2 -1 1 -0 -0 -1 -5 -5 -4 2 -6 -5 -1 3 1 6
-12 -10 12 1 15 32 -1 1 7 -12 9 -7 13 -39 -21 64 -74 37 -16 2 30 18 38 -44 3 -16 -9 -2 -2 -6 1 3 -3 -5 -6 -2 -2 -5 -4 -2 -1 0 1 -1
31 13 -20 -17 -46 -4 16 3 0 8 19 -23 -22 2 -40 60 -23 -6 32 -25 5 10 3 -14 -17 -0 -14 -6 1 1 2 2 -3 -4 -3 -4 -4 -6 -2 -1 -2 1 -1 7
5 -7 26 -21 -8 21 -6 -3 3 1 -18 16 -25 -9 9 -17 39 27 -29 -24 -11 8 13 -5 7 2 -8 -2 -3 3 -2 2 -3 -6 -1 -6 -3 -3 -2 -3 1 0 1 6
-14 -14 -2 -3 10 -7 23 -10 12 -3 -4 -0 5 -0 -4 -18 -18 46 0 -4 -2 -12 16 15 -13 11 6 -7 -10 7 7 -2 -2 -6 -3 -1 -3 1 -2 2 0 5 2 6
7 12 1 -19 -1 12 19 -18 9 8 2 -9 1 -33 10 10 19 14 54 32 27 5 -22 13 2 -4 17 9 -6 -9 0 11 -1 -6 -2 -1 -2 -2 3 1 0 2 5 0
28 -12 7 -17 16 19 -46 -0 -16 -1 7 19 4 -12 -26 -19 -5 1 16 34 24 56 -23 -42 -6 13 -7 15 -8 -2 2 -1 1 -4 -7 -2 -4 -2 7 1 5 1 3 6
42 -14 3 11 1 -15 1 10 23 31 -3 1 20 9 -1 -1 -14 -26 -22 16 -8 -43 51 18 -28 24 -13 2 10 -7 -3 3 2 -6 -5 -2 -6 1 3 5 5 5 3 1
15 20 16 7 4 -7 -44 45 -14 -13 -10 -4 -6 -7 -3 17 35 -44 -29 -7 2 -19 9 12 6 22 -5 -3 5 2 -4 2 -1 -5 -2 -2 -1 4 7 8 2 -0 1 0
1 -2 -1 -0 -2 -16 10 11 28 6 13 -1 1 -6 -7 -10 -10 1 16 2 -17 23 19 -5 16 -1 7 9 -3 -0 2 -3 19 6 9 1 5 10 11 7 2 3 1 0
-5 3 -4 11 12 -4 39 -0 14 -32 -22 -1 -1 -6 -5 -11 -19 13 -13 7 -66 21 10 -1 5 8 -9 8 -5 6 8 11 9 3 8 1 12 5 6 -3 18 2 -4 -2
2 -5 -7 5 -15 10 -16 -2 2 6 1 -9 -10 -1 3 -8 -5 -2 2 -10 -7 3 6 10 -17 8 5 3 1 1 -1 1 7 13 6 2 6 1 -20 15 -2 -1 -3 -4
-0 32 16 27 2 10 10 1 7 3 -14 -6 -16 -20 -10 -6 9 10 5 5 0 2 1 -6 -6 1 3 4 -1 2 6 13 10 4 4 0 1 4 -2 -4 -6 9 -5 0
0 8 6 6 28 2 9 -3 16 2 -2 -1 -10 3 -1 -4 0 12 12 19 13 -3 -9 -4 -2 -4 -3 0 5 5 2 10 14 3 2 1 1 0 -1 1 -4 -1 -0 -0
-1 -10 11 29 19 12 -2 1 9 5 2 -8 -4 -3 -12 0 -1 39 16 -0 -10 -2 -2 0 1 5 16 8 11 14 8 5 6 0 -3 -2 -1 -4 -3 -1 -2 -1 5 2
Height
3128 3131 3126 3132 3138 3142 3140 3139 3138 3138 3145 3149 3148 3149 3149 3155 3164 3167 3168 3170 3171 3172 3174 3175 3177 3180 3182 3183 3187 3190 3192 3194 3195 3197 3199 3199 3201 3202 3203 3203 3204 3207 3207 3206
3126 3119 3126 3132 3136 3138 3138 3135 3133 3134 3137 3147 3146 3145 3142 3152 3157 3160 3163 3166 3168 3170 3172 3172 3173 3176 3178 3181 3184 3187 3189 3191 3192 3194 3196 3197 3198 3199 3199 3200 3201 3204 3205 3204
3116 3119 3125 3128 3130 3133 3133 3132 3131 3131 3133 3137 3142 3143 3143 3145 3151 3155 3158 3161 3164 3165 3167 3168 3169 3171 3174 3176 3180 3183 3185 3187 3190 3191 3193 3194 3195 3195 3197 3199 3200 3201 3201 3202
3112 3116 3118 3121 3122 3127 3127 3131 3130 3129 3130 3135 3138 3138 3141 3146 3147 3148 3149 3155 3158 3160 3163 3165 3164 3166 3169 3171 3176 3178 3181 3183 3186 3187 3189 3191 3192 3194 3195 3197 3198 3200 3200 3201
3104 3109 3111 3111 3114 3121 3123 3128 3127 3127 3126 3131 3130 3134 3132 3136 3139 3140 3144 3146 3151 3155 3158 3160 3160 3161 3164 3167 3169 3174 3176 3179 3181 3184 3184 3187 3189 3191 3194 3195 3196 3197 3199 3200
3101 3104 3105 3107 3113 3117 3123 3124 3124 3124 3123 3118 3121 3126 3124 3128 3127 3138 3138 3143 3146 3148 3152 3155 3157 3158 3159 3161 3163 3167 3170 3174 3176 3179 3181 3182 3186 3188 3190 3192 3194 3195 3197 3198
3094 3094 3098 3103 3106 3110 3115 3119 3119 3117 3112 3108 3114 3116 3115 3118 3126 3127 3133 3136 3140 3141 3144 3148 3150 3151 3154 3156 3158 3160 3165 3169 3172 3174 3177 3180 3183 3186 3188 3190 3191 3193 3195 3196
3085 3087 3091 3094 3095 3102 3105 3108 3106 3108 3105 3107 3108 3103 3108 3112 3115 3121 3127 3120 3130 3133 3137 3141 3143 3146 3148 3151 3154 3157 3160 3164 3167 3170 3174 3177 3180 3183 3185 3188 3189 3190 3191 3192
3076 3077 3082 3086 3092 3096 3095 3097 3102 3105 3103 3101 3098 3100 3104 3108 3110 3112 3122 3128 3130 3127 3130 3135 3139 3141 3143 3146 3149 3154 3156 3159 3163 3166 3170 3174 3178 3180 3182 3184 3185 3187 3187 3188
3072 3073 3073 3078 3086 3082 3083 3094 3098 3096 3095 3092 3093 3093 3095 3100 3104 3107 3114 3118 3125 3128 3126 3131 3134 3136 3138 3141 3146 3149 3152 3156 3159 3163 3166 3171 3175 3177 3179 3180 3181 3183 3184 3185
3068 3070 3069 3069 3066 3078 3085 3085 3086 3090 3091 3085 3088 3085 3092 3094 3099 3103 3106 3112 3119 3122 3122 3126 3129 3132 3134 3137 3141 3144 3148 3151 3154 3158 3162 3167 3171 3173 3175 3176 3178 3180 3180 3183
3057 3063 3062 3058 3063 3068 3072 3071 3078 3079 3078 3080 3083 3080 3086 3090 3090 3096 3101 3106 3110 3113 3119 3121 3126 3127 3129 3133 3136 3138 3142 3146 3150 3153 3158 3163 3166 3168 3171 3172 3174 3176 3177 3179
3049 3050 3056 3058 3055 3055 3058 3067 3073 3076 3079 3074 3079 3076 3080 3088 3091 3097 3098 3102 3106 3108 3112 3118 3121 3123 3124 3127 3129 3132 3136 3140 3145 3149 3153 3157 3160 3163 3165 3169 3170 3171 3173 3174
3038 3039 3040 3039 3044 3051 3053 3055 3061 3066 3067 3067 3069 3075 3079 3082 3084 3093 3093 3098 3101 3103 3108 3111 3116 3118 3120 3121 3123 3126 3130 3134 3139 3143 3147 3150 3154 3158 3160 3164 3167 3168 3168 3170
3031 3030 3033 3037 3040 3043 3044 3048 3052 3056 3057 3061 3062 3067 3074 3074 3081 3083 3089 3093 3096 3100 3103 3108 3110 3113 3114 3115 3117 3120 3125 3128 3132 3137 3141 3145 3149 3152 3154 3157 3162 3163 3163 3165
3023 3024 3029 3029 3032 3034 3036 3040 3042 3045 3050 3053 3058 3060 3068 3073 3074 3080 3082 3086 3090 3093 3096 3101 3105 3107 3109 3111 3112 3114 3119 3121 3125 3130 3133 3140 3143 3146 3148 3152 3155 3156 3158 3158
3016 3018 3025 3024 3028 3029 3030 3026 3034 3038 3043 3048 3051 3052 3060 3063 3068 3073 3078 3079 3082 3086 3090 3093 3097 3100 3103 3104 3106 3107 3112 3116 3119 3124 3127 3133 3136 3138 3142 3147 3148 3150 3150 3150
3006 3012 3016 3021 3026 3020 3012 3027 3033 3034 3035 3040 3043 3047 3053 3054 3057 3060 3065 3071 3074 3078 3081 3086 3089 3092 3095 3097 3097 3102 3106 3110 3114 3117 3121 3126 3129 3132 3136 3139 3141 3142 3142 3142
2997 3005 3007 3012 3014 3016 3019 3021 3024 3026 3030 3036 3039 3042 3046 3049 3052 3051 3056 3060 3066 3072 3075 3075 3081 3085 3087 3089 3092 3093 3097 3102 3106 3111 3114 3119 3121 3123 3130 3133 3134 3134 3135 3135
2992 2994 2999 3005 3008 3005 3015 3016 3019 3022 3026 3030 3030 3033 3035 3038 3043 3048 3051 3053 3055 3059 3065 3068 3071 3073 3076 3081 3084 3086 3089 3095 3099 3104 3108 3110 3114 3119 3123 3126 3126 3128 3129 3130
2989 2992 2992 2998 3004 3006 3007 3013 3015 3019 3024 3022 3024 3027 3030 3033 3036 3039 3042 3045 3046 3048 3055 3059 3063 3066 3068 3073 3075 3078 3083 3088 3094 3097 3101 3105 3108 3112 3116 3118 3120 3123 3124 3124
2988 2991 2991 2998 3000 3008 3004 3005 3010 3015 3019 3020 3020 3023 3025 3028 3032 3035 3036 3037 3039 3041 3043 3050 3054 3057 3061 3064 3066 3069 3074 3080 3085 3089 3093 3097 3103 3106 3110 3115 3117 3116 3117 3117
2987 2987 2994 2997 2997 2999 3002 3006 3006 3012 3014 3014 3015 3017 3020 3023 3026 3026 3026 3028 3032 3036 3038 3041 3046 3050 3053 3056 3058 3061 3066 3071 3077 3083 3088 3092 3098 3102 3105 3107 3109 3110 3109 3109
2985 2989 2991 2999 3000 3001 2999 3002 3004 3005 3004 3008 3011 3014 3013 3018 3021 3021 3021 3022 3024 3029 3030 3033 3037 3041 3045 3048 3051 3055 3061 3067 3072 3077 3083 3088 3093 3096 3098 3099 3101 3101 3102 3101
2978 2982 2983 2989 2990 2993 2994 2998 3002 2999 3001 3005 3007 3010 3012 3010 3012 3011 3013 3015 3015 3018 3021 3027 3029 3033 3038 3041 3045 3051 3057 3063 3068 3073 3079 3084 3087 3089 3090 3091 3093 3094 3094 3095
2976 2978 2978 2980 2984 2987 2988 2993 2993 2995 2998 3000 3004 3006 3009 3010 3011 3009 3009 3011 3012 3017 3020 3025 3027 3031 3035 3039 3047 3052 3057 3063 3067 3070 3074 3077 3079 3081 3083 3084 3086 3088 3088 3088